This is the latest recevied weather packets stored in our database for station/object XE2RCS-21. If no packets are shown the sender has not sent any weather packets the latest 10 day(s).
| Time | Temp. | Humidity | Pressure | Rain* | Wind** | Luminosity | Snow |
|---|---|---|---|---|---|---|---|
| 1777528824 | 24.44° C | 100% | 1013.3 hPa | - | - | - | - |
| 1777527024 | 24.44° C | 100% | 1015 hPa | - | - | - | - |
| 1777525224 | 25.56° C | 100% | 1017.2 hPa | - | - | - | - |
| 1777523423 | 25.56° C | 100% | 1017.5 hPa | - | - | - | - |
| 1777521623 | 26.67° C | 100% | 1018.1 hPa | - | - | - | - |
| 1777519824 | 26.67° C | 100% | 1017.3 hPa | - | - | - | - |
| 1777518024 | 26.11° C | 100% | 1017.1 hPa | - | - | - | - |
| 1777516223 | 27.78° C | 100% | 1018 hPa | - | - | - | - |
| 1777514423 | 27.78° C | 100% | 1017.7 hPa | - | - | - | - |
| 1777512623 | 27.22° C | 100% | 1017.6 hPa | - | - | - | - |
| 1777510823 | 29.44° C | 71% | 1018.9 hPa | - | - | - | - |
| 1777509023 | 30.56° C | 64% | 1018.8 hPa | - | - | - | - |
| 1777507223 | 31.11° C | 82% | 1018.5 hPa | - | - | - | - |
| 1777505423 | 32.78° C | 62% | 1018.7 hPa | - | - | - | - |
| 1777503622 | 32.78° C | 50% | 1018.5 hPa | - | - | - | - |
| 1777501822 | 33.89° C | 42% | 1018.7 hPa | - | - | - | - |
| 1777500022 | 34.44° C | 34% | 1018.9 hPa | - | - | - | - |
| 1777498230 | 35° C | 33% | 1019.3 hPa | - | - | - | - |
| 1777496430 | 35° C | 32% | 1019.7 hPa | - | - | - | - |
| 1777494630 | 35.56° C | 31% | 1019.9 hPa | - | - | - | - |
| 1777492829 | 38.89° C | 29% | 1020.4 hPa | - | - | - | - |
| 1777491029 | 37.22° C | 33% | 1020.8 hPa | - | - | - | - |
| 1777489229 | 38.89° C | 33% | 1021.1 hPa | - | - | - | - |
| 1777487429 | 40.56° C | 31% | 1021.7 hPa | - | - | - | - |
| 1777485629 | 36.11° C | 39% | 1021.9 hPa | - | - | - | - |
* Rain since midnight (hover to see other rain measurements)
** Current wind speed in m/s (hover to see current wind gust speed)